MARSHFIELD, MA current weather conditions

sailwx.info

Wind from 320 at 6 knots

Air temperature 2.0° C
Visibility: greater than 8.7 NM
Dewpoint -3.0° C

Last reported at 2014-Dec-19 14:35 UTC.
Time now 2014-Dec-19 16:27 UTC

Location: N 42°06' W 070°40'.
View on Google Maps.

See reports from other nearby stations

  
Tides and Currents Weather Stations Pressure Air Temp Water Temp Dewpoint Dewpoint Depression Visibility Wind Speed Wind Dir Waves Ship Positions
date/time (UTC)wind fromknots sea level pressurealtimeterstation pressurevisibilityair tempwater tempwave heightnotes
2014-Dec-19 15:35 320 6 gusting 15 8.7 2.0
2014-Dec-19 15:15 310 7 8.7 2.0
2014-Dec-19 14:55 300 5 gusting 14 8.7 2.0
2014-Dec-19 14:35 320 6 8.7 2.0
2014-Dec-19 14:15 310 6 8.7 2.0
2014-Dec-19 13:55 320 7 8.7 2.0
2014-Dec-19 13:35 330 7 gusting 14 8.7 2.0
2014-Dec-19 13:15 300 7 gusting 14 8.7 2.0
2014-Dec-19 12:55 310 6 8.7 2.0
2014-Dec-19 12:35 310 3 8.7 2.0
2014-Dec-19 12:15 300 3 8.7 2.0
2014-Dec-19 11:55 290 5 8.7 2.0
2014-Dec-19 11:35 300 5 8.7 2.0
2014-Dec-19 11:15 280 6 8.7 2.0
2014-Dec-19 10:55 290 4 8.7 2.0
2014-Dec-19 10:35 280 3 8.7 2.0
2014-Dec-19 10:15 290 4 8.7 2.0
2014-Dec-19 09:55 300 5 8.7 2.0
2014-Dec-19 09:35 290 3 8.7 2.0
2014-Dec-19 09:15 290 5 8.7 2.0
2014-Dec-19 08:55 300 6 8.7 2.0
2014-Dec-19 08:35 290 4 8.7 2.0
2014-Dec-19 08:15 310 4 8.7 2.0
2014-Dec-19 07:55 300 4 8.7 3.0
2014-Dec-19 07:35 290 3 8.7 2.0
2014-Dec-19 07:15 280 3 8.7 2.0
2014-Dec-19 06:55 8.7 2.0
2014-Dec-19 06:35 290 3 8.7 2.0
2014-Dec-19 06:15 280 5 8.7 2.0
2014-Dec-19 05:55 290 4 8.7 2.0
2014-Dec-19 05:35 8.7 2.0
2014-Dec-19 05:15 8.7 2.0
2014-Dec-19 04:55 8.7 2.0
2014-Dec-19 04:35 8.7 2.0
2014-Dec-19 04:15 250 4 8.7 1.0
2014-Dec-19 03:55 240 3 8.7 2.0
2014-Dec-19 03:35 8.7 2.0
2014-Dec-19 03:15 8.7 2.0
2014-Dec-19 02:55 270 3 8.7 3.0
2014-Dec-19 02:35 270 5 8.7 3.0
2014-Dec-19 02:15 290 5 8.7 3.0
2014-Dec-19 01:55 280 7 8.7 4.0
2014-Dec-19 01:35 280 6 8.7 4.0
2014-Dec-19 01:15 280 7 8.7 4.0
2014-Dec-19 00:55 270 5 8.7 4.0
2014-Dec-19 00:35 260 4 8.7 4.0
2014-Dec-19 00:15 270 3 8.7 4.0
2014-Dec-18 23:55 270 4 8.7 3.0
2014-Dec-18 23:35 290 3 8.7 4.0
2014-Dec-18 23:15 270 4 8.7 4.0
2014-Dec-18 22:55 280 6 8.7 4.0
2014-Dec-18 22:35 270 6 8.7 5.0
2014-Dec-18 22:15 270 5 8.7 5.0
2014-Dec-18 21:55 280 5 8.7 5.0
2014-Dec-18 21:35 280 8 8.7 6.0
2014-Dec-18 21:15 270 6 8.7 6.0
2014-Dec-18 20:55 280 5 gusting 16 8.7 6.0
2014-Dec-18 20:35 270 7 8.7 6.0
2014-Dec-18 20:15 300 6 gusting 14 8.7 6.0
2014-Dec-18 19:55 280 7 8.7 6.0
2014-Dec-18 19:35 300 11 gusting 16 8.7 7.0
2014-Dec-18 19:15 290 6 gusting 15 8.7 6.0
2014-Dec-18 18:55 280 9 gusting 16 8.7 6.0
2014-Dec-18 18:35 300 8 gusting 18 8.7 6.0
2014-Dec-18 18:15 300 6 gusting 17 8.7 6.0
2014-Dec-18 17:55 270 12 gusting 19 8.7 6.0
2014-Dec-18 17:35 300 10 gusting 26 8.7 7.0
2014-Dec-18 17:15 300 13 gusting 20 8.7 7.0
2014-Dec-18 16:55 290 13 gusting 22 8.7 6.0
2014-Dec-18 16:35 310 11 gusting 19 8.7 7.0
2014-Dec-18 16:15 290 7 gusting 18 8.7 6.0
2014-Dec-18 15:55 280 12 gusting 20 8.7 6.0
2014-Dec-18 15:35 270 10 gusting 19 8.7 4.0
2014-Dec-18 15:15 270 9 gusting 20 8.7 4.0
2014-Dec-18 14:55 270 10 gusting 22 8.7 4.0
2014-Dec-18 14:35 270 9 8.7 3.0
2014-Dec-18 14:15 270 10 gusting 20 7.8 3.0
2014-Dec-18 13:55 270 8 gusting 17 7.0 2.0
2014-Dec-18 13:35 270 9 gusting 15 7.0 2.0
2014-Dec-18 13:15 270 9 gusting 16 4.3 2.0 Precipitation.
2014-Dec-18 12:55 270 8 gusting 15 7.0 2.0
2014-Dec-18 12:35 260 7 gusting 16 6.1 2.0
2014-Dec-18 12:15 270 10 gusting 15 7.8 2.0
2014-Dec-18 11:55 270 8 gusting 15 6.1 2.0
2014-Dec-18 11:35 260 7 gusting 15 7.8 3.0
2014-Dec-18 11:15 270 7 gusting 18 8.7 3.0
2014-Dec-18 10:55 290 9 8.7 4.0
2014-Dec-18 10:35 280 7 gusting 15 8.7 4.0
2014-Dec-18 10:15 270 8 gusting 15 8.7 4.0
2014-Dec-18 09:55 260 7 8.7 4.0
2014-Dec-18 09:35 270 7 8.7 4.0
2014-Dec-18 09:15 270 6 8.7 4.0
2014-Dec-18 08:55 260 8 8.7 4.0
2014-Dec-18 08:35 260 7 8.7 4.0
2014-Dec-18 08:15 270 7 8.7 4.0
2014-Dec-18 07:55 250 6 8.7 4.0
2014-Dec-18 07:35 260 8 8.7 4.0
2014-Dec-18 07:15 270 7 8.7 4.0
2014-Dec-18 06:55 260 8 8.7 4.0
2014-Dec-18 06:35 260 5 8.7 4.0
2014-Dec-18 06:15 270 5 8.7 5.0
2014-Dec-18 05:55 270 8 8.7 5.0
2014-Dec-18 05:35 270 8 8.7 6.0
2014-Dec-18 05:15 280 6 gusting 14 8.7 6.0
2014-Dec-18 04:55 280 7 gusting 14 8.7 6.0
2014-Dec-18 04:35 270 6 8.7 6.0
2014-Dec-18 04:15 280 7 8.7 6.0
2014-Dec-18 03:55 280 6 gusting 17 8.7 6.0
2014-Dec-18 03:35 260 6 8.7 7.0
2014-Dec-18 03:15 270 10 gusting 19 8.7 7.0
2014-Dec-18 02:55 270 10 gusting 15 8.7 7.0
2014-Dec-18 02:35 260 6 8.7 7.0
2014-Dec-18 02:15 280 7 8.7 7.0
2014-Dec-18 01:55 280 6 8.7 7.0
2014-Dec-18 01:35 260 5 8.7 8.0
2014-Dec-18 01:15 260 6 8.7 8.0
2014-Dec-18 00:55 280 6 8.7 8.0
2014-Dec-18 00:35 280 6 8.7 7.0
2014-Dec-18 00:15 270 6 8.7 7.0
2014-Dec-17 23:55 260 7 8.7 8.0
2014-Dec-17 23:35 260 4 8.7 8.0
2014-Dec-17 23:15 280 4 8.7 8.0
2014-Dec-17 22:55 280 5 8.7 8.0
2014-Dec-17 22:35 290 7 8.7 8.0
2014-Dec-17 22:15 300 6 8.7 8.0
2014-Dec-17 21:55 280 5 8.7 8.0
2014-Dec-17 21:35 280 4 8.0 Light rain.
2014-Dec-17 21:15 280 4 8.7
2014-Dec-17 20:55 290 3 8.7
2014-Dec-17 20:35 290 6 8.7
2014-Dec-17 20:15 290 6 8.7
2014-Dec-17 19:55 300 3 gusting 14 8.7
2014-Dec-17 19:35 290 6 8.7
2014-Dec-17 19:15 300 5 8.7
2014-Dec-17 18:55 300 6 8.7
2014-Dec-17 18:35 300 6 8.7
2014-Dec-17 18:15 290 5 8.7
2014-Dec-17 17:55 280 5 8.7
2014-Dec-17 17:35 280 8 8.7
2014-Dec-17 17:15 280 5 7.0
2014-Dec-17 16:55 290 6 8.7
2014-Dec-17 16:35 300 6 8.7
2014-Dec-17 16:15 290 5 8.7